Flag for Italy Weather past 2 weeks in Messina, Italy

Now
55 °F

Clear.


Feels Like: 55 °F
Forecast: 62 / 73 °F
Wind: 3 mph from East

Location: Reggio Calabria

Current Time: Apr 26, 2015 at 12:18:16 AM

Latest Report: Apr 25, 2015 at 10:50 PM


Visibility: 10 mi

Pressure: 30.07 "Hg

Humidity: 94%

Dew point: 54 °F

Location of MessinaLocation

Historic Weather in Messina — Graph

°F

Messina temperature yesterday

Maximum temperature yesterday: 68 °F (at 2:50 PM)
Minimum temperature yesterday: 52 °F (at 5:50 AM)
Average temperature yesterday: 61 °F

Past Weeks' High & Low Weather Summary

 TemperatureHumidityPressure
High75 °F (Apr 16, 12:50 PM)94% (Apr 25, 9:50 PM)30.39 "Hg (Apr 25, 9:50 PM)
Low46 °F (Apr 11, 5:50 AM)27% (Apr 16, 12:50 PM)29.89 "Hg (Apr 18, 4:50 PM)
Average62 °F66%30.15 "Hg
* Reported Apr 10 9:50 PM — Apr 25 9:50 PM, Messina, Weather by CustomWeather, © 2015

Note: Actual official high and low records may vary slightly from our data, if they occured in-between our weather recording intervals... More about our weather records

Advertising

Messina weather history for previous 24 hours

 ConditionsComfort  
Time TempWeatherWind HumidityBarometerVisibility
9:50 PM
Sat, Apr 25
55 °FClear.1 mph94%30.07 "Hg10 mi
8:50 PM59 °FClear.6 mph88%30.04 "Hg10 mi
7:50 PM59 °FPassing clouds.6 mph88%30.01 "HgN/A
6:50 PM61 °FPassing clouds.7 mph88%30.01 "HgN/A
5:50 PM63 °FPassing clouds.9 mph83%30.01 "HgN/A
4:50 PM64 °FPassing clouds.12 mph78%30.04 "HgN/A
3:50 PM66 °FPassing clouds.13 mph78%30.01 "HgN/A
2:50 PM68 °FPassing clouds.13 mph69%30.04 "HgN/A
1:50 PM66 °FPassing clouds.14 mph68%30.04 "HgN/A
12:50 PM66 °FPassing clouds.9 mph73%30.04 "HgN/A
11:50 AM64 °FPassing clouds.6 mph68%30.04 "HgN/A
10:50 AM64 °FPassing clouds.6 mph73%30.07 "HgN/A
9:50 AM63 °FSunny.2 mph73%30.04 "Hg10 mi
8:50 AM61 °FPassing clouds.3 mph77%30.04 "HgN/A
7:50 AM59 °FSunny.1 mph77%30.07 "Hg10 mi
6:50 AM52 °FClear.7 mph88%30.04 "Hg10 mi
5:50 AM52 °FClear.6 mph82%30.04 "Hg10 mi
Weather by CustomWeather, © 2015

See weather overviewHow to use our weather pages